Weather Roundup
Issued by NWS Corpus Christi, TX

Home | Current Version | Previous Version | Text Only | Print | Product List | Glossary On
Versions: 1 2 3 4 5 6 7 8 9 10 11 12 13 14 15 16 17 18 19 20 21 22 23 24 25 26 27 28 29 30 31 32 33 34 35 36 37 38 39 40 41 42 43 44 45 46 47 48 49 50
000
ASUS44 KCRP 050310
HRRCRP

SOUTH TEXAS REGIONAL WEATHER ROUNDUP
NATIONAL WEATHER SERVICE CORPUS CHRISTI TX
1000 PM CDT WED MAY 04 2016


TXZ229>244-050400-
...CORPUS CHRISTI AREA OBSERVATIONS...

CITY           SKY/WX    TMP DP  RH WIND       PRES   REMARKS
CORPUS CHRISTI CLEAR     68  58  70 S6        30.01R
NAS CORPUS CHR CLEAR     71  63  75 S7        30.00R
ROCKPORT       CLEAR     70  61  73 S3        30.00R
KINGSVILLE NAS CLEAR     67  60  78 SE5       30.01R
ALICE          PTCLDY    65  55  70 SE6       30.01R
FALFURRIAS     CLEAR     71  52  51 SE5       30.01R
$$

...VICTORIA AREA OBSERVATIONS...

CITY           SKY/WX    TMP DP  RH WIND       PRES   REMARKS
VICTORIA       CLEAR     71  60  68 CALM      29.99R
BEEVILLE       FAIR      69  59  69 SE6       30.01R
PLEASANTON     CLEAR     71  54  54 CALM      30.00R
SAN ANTONIO    CLEAR     73  46  38 NW3       30.02R
$$

...LAREDO AREA OBSERVATIONS...

CITY           SKY/WX    TMP DP  RH WIND       PRES   REMARKS
LAREDO         CLEAR     80  44  27 NE9       30.01R
COTULLA        CLEAR     74  42  31 CALM      30.00R
DEL RIO        CLEAR     75  48  38 CALM      30.01R
MCALLEN        CLEAR     74  54  49 SE10      30.02R
HEBBRONVILLE   CLEAR     74  46  37 S3        30.03R
$$

...OTHER TEXAS OBSERVATIONS...

CITY           SKY/WX    TMP DP  RH WIND       PRES   REMARKS
BROWNSVILLE    CLEAR     65  60  84 S5        30.03R
HOUSTON        CLEAR     65  57  75 CALM      29.96R
COL. STATION   CLEAR     71  55  56 N3        29.98R
AUSTIN         CLEAR     62  58  86 CALM      30.00R
WACO           CLEAR     61  54  77 NW6       30.00R
FORT WORTH     CLEAR     76  50  40 W8        29.97R
WICHITA FALLS  CLEAR     70  50  49 N5        30.00R
LUBBOCK        CLEAR     64  32  30 E6        30.11R
EL PASO        CLEAR     75  21  13 E8        30.07S
$$

...MARINE OBSERVATIONS...

STATION/POSITION TIME  SKY/WX   TEMP    WIND        PRES    VSBY  WAVE   SWELL
                                AIR SEA DIR/SP/G                  HT/PER HT/PER
                 (UTC)          (F)     (DEG/KT/KT) (MB)    (MI)  (FT/S) (FT/S)
PORT ARANSAS     0200            74 78  160/ 12/ 13 1016.2R
BUOY 90 E PORT A 0250            74 77  200/  4/  6 1015.4R         2/ 5   2/ 5
BUOY 45 SE BAFFI 0250            74 75  150/ 10/ 10 1015.9R         2/ 5   2/ 5
BUOY 200 E PT IS 0250                                 N/A           4/ 6
BUOY 15 E GALVES 0250            74 76  240/ 12/ 14 1014.1R         1/ 3
$$



USA.gov is the U.S. government's official web portal to all federal, state and local government web resources and services.